TimeCST,TemperatureF,Dew PointF,Humidity,Sea Level PressureIn,VisibilityMPH,Wind Direction,Wind SpeedMPH,Gust SpeedMPH,PrecipitationIn,Events,Conditions,WindDirDegrees,DateUTC
12:53 AM,48.0,42.1,80,30.07,10.0,South,6.9,-,N/A,,Clear,170,2012-11-26 06:53:00
1:53 AM,46.9,42.1,83,30.06,10.0,SE,5.8,-,N/A,,Clear,140,2012-11-26 07:53:00
2:53 AM,46.9,43.0,86,30.07,10.0,SSE,5.8,-,N/A,,Clear,160,2012-11-26 08:53:00
3:53 AM,48.9,45.0,86,30.07,10.0,SSE,5.8,-,N/A,,Unknown,160,2012-11-26 09:53:00
4:53 AM,48.0,45.0,89,30.07,10.0,SE,4.6,-,N/A,,Mostly Cloudy,130,2012-11-26 10:53:00
5:53 AM,50.0,46.9,89,30.08,6.0,SE,6.9,-,0.05,Rain,Light Rain,130,2012-11-26 11:53:00
6:53 AM,51.1,48.9,92,30.09,5.0,SE,5.8,-,0.01,Rain,Light Rain,140,2012-11-26 12:53:00
7:05 AM,51.8,48.2,88,30.11,2.0,ENE,3.5,-,0.03,Rain,Rain,70,2012-11-26 13:05:00
7:28 AM,51.8,48.2,88,30.11,4.0,ESE,3.5,-,0.06,Rain,Light Rain,120,2012-11-26 13:28:00
7:45 AM,51.8,50.0,94,30.12,4.0,East,5.8,-,0.06,Rain,Light Rain,100,2012-11-26 13:45:00
7:53 AM,52.0,50.0,93,30.10,4.0,ESE,6.9,-,0.06,Rain,Light Rain,120,2012-11-26 13:53:00
8:53 AM,53.1,51.1,93,30.11,8.0,SE,8.1,-,0.01,Rain,Light Rain,130,2012-11-26 14:53:00
9:53 AM,57.0,54.0,89,30.11,10.0,SE,6.9,-,0.00,,Overcast,140,2012-11-26 15:53:00
10:15 AM,57.2,53.6,88,30.13,2.0,SE,5.8,-,0.06,Rain,Rain,140,2012-11-26 16:15:00
10:20 AM,57.2,55.4,94,30.12,1.0,SE,5.8,-,0.10,Rain,Heavy Rain,130,2012-11-26 16:20:00
10:30 AM,57.2,55.4,94,30.12,2.0,ESE,4.6,-,0.12,Rain,Light Rain,120,2012-11-26 16:30:00
10:39 AM,59.0,55.4,88,30.11,9.0,ESE,6.9,-,0.12,,Overcast,110,2012-11-26 16:39:00
10:53 AM,60.1,57.0,90,30.09,10.0,ESE,6.9,-,0.12,,Mostly Cloudy,120,2012-11-26 16:53:00
11:53 AM,64.9,59.0,81,30.05,10.0,SSE,10.4,-,N/A,,Scattered Clouds,160,2012-11-26 17:53:00
12:53 PM,64.0,59.0,84,30.03,5.0,South,10.4,-,0.01,Rain,Rain,180,2012-11-26 18:53:00
1:03 PM,62.6,60.8,94,30.08,1.5,West,13.8,18.4,0.07,Rain,Rain,260,2012-11-26 19:03:00
1:08 PM,62.6,60.8,94,30.07,0.5,Variable,3.5,18.4,0.17,Fog-Rain,Heavy Rain,0,2012-11-26 19:08:00
1:16 PM,62.6,60.8,94,30.06,1.0,South,4.6,-,0.19,Rain,Light Rain,170,2012-11-26 19:16:00
1:19 PM,62.6,60.8,94,30.06,3.0,South,4.6,-,0.19,Rain,Light Rain,180,2012-11-26 19:19:00
1:32 PM,62.6,60.8,94,30.05,10.0,SSE,8.1,-,0.19,Rain,Light Rain,150,2012-11-26 19:32:00
1:38 PM,64.4,62.6,94,30.06,10.0,SSE,8.1,-,0.19,,Overcast,160,2012-11-26 19:38:00
1:53 PM,64.0,61.0,90,30.04,10.0,SSE,12.7,-,0.19,,Overcast,150,2012-11-26 19:53:00
2:07 PM,64.4,60.8,88,30.05,10.0,SSE,10.4,-,N/A,,Overcast,150,2012-11-26 20:07:00
2:42 PM,64.4,62.6,94,30.04,6.0,SSE,5.8,-,0.00,Rain,Light Rain,150,2012-11-26 20:42:00
2:53 PM,64.0,62.1,93,30.03,8.0,SSE,6.9,-,0.00,,Overcast,150,2012-11-26 20:53:00
3:08 PM,64.4,62.6,94,30.04,7.0,SSE,6.9,-,0.00,Rain,Light Rain,150,2012-11-26 21:08:00
3:53 PM,64.9,63.0,93,30.03,9.0,SSE,9.2,-,0.00,,Overcast,160,2012-11-26 21:53:00
4:53 PM,64.0,63.0,96,30.04,6.0,SSE,8.1,-,0.00,Rain,Light Rain,160,2012-11-26 22:53:00
5:07 PM,64.4,62.6,94,30.06,-9999.0,South,6.9,-,0.00,,Unknown,170,2012-11-26 23:07:00
5:40 PM,64.4,62.6,94,30.07,10.0,SSE,8.1,-,0.00,,Overcast,160,2012-11-26 23:40:00
5:53 PM,64.0,63.0,96,30.05,10.0,SSE,5.8,-,0.00,,Overcast,150,2012-11-26 23:53:00
6:53 PM,64.0,63.0,96,30.06,10.0,SSE,5.8,-,N/A,,Overcast,160,2012-11-27 00:53:00
7:53 PM,64.9,62.1,90,30.07,10.0,South,9.2,-,N/A,,Overcast,170,2012-11-27 01:53:00
8:53 PM,64.0,62.1,93,30.08,10.0,South,6.9,-,N/A,,Overcast,180,2012-11-27 02:53:00
9:02 PM,64.4,62.6,94,30.10,10.0,South,5.8,-,N/A,,Overcast,180,2012-11-27 03:02:00
9:53 PM,64.0,62.1,93,30.07,10.0,South,9.2,-,0.00,,Overcast,170,2012-11-27 03:53:00
10:18 PM,64.4,62.6,94,30.08,10.0,South,9.2,-,N/A,,Overcast,170,2012-11-27 04:18:00
11:04 PM,62.6,60.8,94,30.06,10.0,South,11.5,-,N/A,Thunderstorm,Thunderstorm,170,2012-11-27 05:04:00
11:19 PM,64.4,62.6,94,30.07,9.0,South,9.2,-,N/A,,Overcast,170,2012-11-27 05:19:00
11:53 PM,64.0,62.1,93,30.04,9.0,South,12.7,-,N/A,,Overcast,170,2012-11-27 05:53:00